Temp_Advection
nan nan nan nan nan nan nan nan nan nan nan nan nan nan nan nan nan nan nan nan nan nan nan nan nan nan nan nan nan nan nan nan nan nan nan nan nan nan nan nan nan nan nan nan
nan -0 -0 0 -0 -0 -0 -1 -1 -0 -1 -0 -0 -0 -0 -0 -0 -0 -0 0 0 0 0 0 0 0 0 -0 0 0 0 -0 -0 -0 -0 -0 -0 -0 -0 -0 -0 -0 -0 nan
nan 0 0 -0 -1 -0 -0 -0 -0 -0 -1 1 0 0 0 0 0 0 0 1 1 0 1 1 1 1 0 0 0 0 0 -0 -0 -0 -0 -0 -0 -0 -0 -0 -0 -0 0 nan
nan 0 -0 0 -0 -0 -0 -0 -0 -1 0 -0 0 1 1 1 1 1 1 1 1 1 1 1 1 0 -0 -0 0 0 0 -0 -0 -0 -0 -0 -0 -0 0 0 0 0 0 nan
nan -0 -1 0 0 0 -0 -0 -1 -0 1 0 -1 -1 -0 0 1 0 0 0 0 1 1 0 1 0 -0 0 0 0 0 0 -0 -0 -0 -0 -0 0 0 0 0 -0 0 nan
nan -0 -0 -0 -0 0 0 -0 -0 1 1 0 0 -0 -0 -0 1 1 0 -0 0 0 0 0 0 -0 0 0 0 0 0 0 0 -0 -0 -0 -0 0 0 0 0 0 0 nan
nan -0 -1 -0 0 0 0 -0 -0 1 1 1 1 -1 -0 -0 0 0 0 0 0 -0 0 0 -0 0 0 0 0 0 -0 -0 0 0 -0 -0 -0 0 0 0 0 0 -0 nan
nan -0 -0 0 0 0 -0 0 0 1 1 -0 -1 0 -0 0 0 0 0 0 0 0 0 -0 0 0 0 0 0 -0 -0 0 0 0 -0 -0 -0 -0 0 0 -0 -0 -0 nan
nan 0 -0 0 -0 -0 0 0 0 0 0 0 -0 -0 0 0 0 0 0 0 0 0 0 0 0 0 0 0 0 0 0 -0 -0 -0 0 -0 -0 -0 -0 -0 -0 -0 -0 nan
nan 0 0 0 -0 0 1 0 0 0 0 -0 -1 -0 -0 0 0 0 0 0 0 0 0 0 0 0 0 0 0 0 0 0 0 -0 -0 0 0 -0 0 0 0 -0 -0 nan
nan -0 -0 -0 -0 0 1 1 0 0 0 0 -0 -0 -0 -0 -0 0 0 0 0 0 0 0 0 0 0 0 0 0 0 -0 -0 0 -0 -0 0 0 0 0 0 0 0 nan
nan -0 -0 -0 0 0 0 0 0 -0 -0 -0 0 -0 -0 -0 0 0 0 0 0 0 0 0 0 0 0 0 0 -0 0 0 -0 0 0 -0 -0 -0 0 0 0 1 0 nan
nan 0 -0 0 0 0 -0 0 0 0 0 -0 -0 0 0 0 0 0 0 0 0 0 0 0 0 0 0 0 0 0 -0 0 0 0 0 0 -0 -0 -0 -0 -0 -0 0 nan
nan 1 -0 0 0 1 0 0 0 0 0 0 0 0 0 0 0 0 0 0 0 0 0 0 0 0 0 0 -0 0 0 0 0 0 0 0 0 0 -0 -0 -0 -0 -0 nan
nan 0 0 0 -0 0 1 0 0 0 0 0 0 0 0 0 0 0 0 0 0 0 0 0 0 0 0 0 0 0 0 0 0 -0 0 0 -0 -0 -0 -0 -0 -0 -0 nan
nan 1 1 1 0 0 0 1 0 0 0 0 0 0 0 0 0 0 0 0 0 0 0 0 0 0 0 0 0 0 0 0 0 -0 -0 0 -0 -0 -0 -0 -0 -0 -0 nan
nan -1 0 -0 -0 0 0 0 0 0 0 0 0 0 0 0 0 0 0 0 0 -0 0 0 0 0 0 -0 0 0 0 0 0 0 0 0 0 -0 -0 -0 -0 -0 -0 nan
nan -1 -1 -1 -1 -0 0 -0 0 0 0 0 0 0 0 0 0 0 0 0 0 0 0 0 0 0 0 0 0 0 0 0 0 0 0 0 0 0 -0 -0 -0 -0 -0 nan
nan 0 0 1 0 -0 -0 0 0 0 0 0 0 0 0 0 0 0 0 0 0 0 0 -0 0 0 0 0 -0 0 0 0 0 -0 -0 -0 -0 -0 -0 -0 0 -0 -0 nan
nan 1 0 0 0 0 0 0 0 0 0 0 0 0 0 0 0 0 0 0 0 0 0 0 0 0 -0 -0 0 0 0 0 0 0 -0 -0 -0 -0 -0 -0 -0 0 -0 nan
nan 0 0 0 0 0 0 0 0 0 0 0 0 0 0 0 0 0 0 0 0 0 0 0 0 -0 -0 -0 0 0 0 0 0 0 0 -0 -0 -0 -0 0 0 -0 -0 nan
nan 0 0 0 0 0 0 0 0 0 0 0 0 0 0 0 0 0 0 0 0 0 0 0 -0 -0 0 0 0 0 0 0 0 0 0 0 0 0 -0 -0 -0 -0 -0 nan
nan 0 0 0 0 0 0 0 0 0 0 0 0 0 0 0 0 0 0 -0 0 0 -0 -0 0 0 -0 -0 0 0 0 0 0 0 0 -0 0 0 0 -0 -0 -0 0 nan
nan 0 0 0 0 0 0 0 0 0 0 0 0 0 0 0 0 0 0 -0 -0 -0 0 0 -0 -0 -0 -0 0 0 0 0 0 0 1 0 0 0 0 0 0 0 0 nan
nan 0 0 0 0 0 0 0 0 0 0 0 0 0 0 0 0 -0 -0 -0 -0 -0 -0 -0 -0 -0 -0 -0 -0 -0 0 0 1 0 -0 0 0 1 1 0 -0 1 0 nan
nan 0 0 0 0 0 0 0 0 0 0 0 0 0 0 0 0 -0 -0 -0 -0 -0 -0 -0 -0 -0 -0 -0 0 0 0 0 0 1 1 0 0 0 -0 0 0 -0 0 nan
nan nan nan nan nan nan nan nan nan nan nan nan nan nan nan nan nan nan nan nan nan nan nan nan nan nan nan nan nan nan nan nan nan nan nan nan nan nan nan nan nan nan nan nan
Wind_Speed
3 3 16 17 19 20 19 18 12 12 15 10 6 8 9 17 21 22 23 23 21 20 18 17 15 14 13 12 11 9 6 7 10 13 15 14 14 16 18 21 23 24 26 25
3 2 6 13 18 20 22 23 21 19 16 6 2 4 10 16 21 22 21 21 20 18 18 17 16 15 14 13 12 8 6 8 11 14 14 14 15 18 21 23 24 25 25 25
3 5 5 9 19 19 19 21 20 21 18 15 6 8 11 13 17 18 18 18 18 18 17 16 16 15 14 12 11 7 6 9 12 14 14 15 18 20 21 23 24 25 25 26
2 5 6 1 2 17 21 19 20 20 15 5 9 9 7 7 11 11 11 12 14 15 15 16 15 14 14 13 9 7 7 10 12 14 15 17 19 20 22 24 25 26 27 28
3 6 9 12 3 5 16 19 19 18 16 6 14 17 9 8 10 11 10 10 11 13 15 15 16 16 13 10 7 6 8 10 13 15 17 18 20 23 25 26 28 29 29 30
1 3 4 5 2 0 6 9 5 16 13 15 20 8 6 11 11 11 10 10 11 13 14 14 14 13 11 8 6 7 9 12 14 16 18 20 22 25 26 27 29 29 29 29
2 4 7 5 5 5 5 3 3 5 14 20 12 5 22 17 12 10 9 9 9 10 12 13 12 11 9 7 7 8 10 14 16 17 19 21 25 26 28 29 29 28 29 28
6 3 7 7 5 4 3 6 8 12 15 16 18 18 17 15 13 10 9 10 10 11 12 11 10 9 7 6 7 10 13 14 16 18 20 23 27 30 30 28 26 27 27 27
7 4 3 3 3 2 6 12 13 17 17 19 19 16 15 14 11 9 8 8 9 9 10 9 8 6 5 8 9 12 13 14 17 19 21 24 28 28 28 24 25 26 26 27
3 3 2 6 2 3 11 12 15 17 18 16 17 14 13 11 9 7 6 7 8 8 8 8 7 6 7 9 11 11 13 15 18 21 25 26 24 23 24 25 25 26 28 29
1 2 3 4 5 11 15 17 18 16 14 14 14 12 10 8 6 5 6 6 7 8 8 7 7 7 9 9 9 11 14 17 20 23 25 25 23 24 25 24 23 27 30 31
3 12 4 10 17 17 19 19 17 16 15 13 10 9 7 4 4 5 6 7 8 9 9 9 7 8 8 8 10 13 17 20 21 23 23 22 25 29 24 22 23 24 25 26
2 14 5 18 19 17 18 17 15 13 11 11 9 6 3 3 4 6 6 8 9 9 9 8 8 7 7 9 11 15 18 21 21 22 21 22 25 26 31 31 24 23 23 24
13 18 14 17 13 17 19 17 15 13 12 9 5 3 2 3 4 5 6 8 10 9 9 8 6 6 8 11 14 17 19 20 20 20 23 24 24 26 26 28 31 30 27 26
12 7 11 17 21 19 19 18 15 13 10 6 3 2 2 2 4 5 7 9 10 9 8 7 6 8 10 13 16 18 19 20 21 25 26 23 23 24 25 26 27 29 30 30
14 13 18 24 24 22 20 17 13 11 7 4 2 2 2 3 5 5 6 8 8 8 8 7 7 10 13 15 17 19 20 22 24 25 25 23 22 24 25 25 27 28 29 29
24 17 22 25 25 22 17 13 11 8 5 3 2 3 3 3 5 7 8 9 10 9 8 8 10 12 14 17 19 21 23 24 23 23 22 22 24 23 24 26 26 27 29 28
13 15 22 26 25 20 16 12 9 6 4 3 3 3 4 4 5 7 8 8 8 8 9 10 11 13 16 19 21 23 25 25 24 23 23 22 23 25 24 24 26 27 29 31
15 23 21 21 20 18 15 11 8 6 4 3 3 3 4 5 6 7 7 8 8 8 11 11 13 16 18 20 22 25 25 23 21 21 22 22 22 23 23 24 26 27 28 31
23 23 23 22 18 14 13 10 7 5 3 2 2 3 4 5 7 8 8 8 9 10 11 13 15 17 19 21 24 25 22 19 21 22 23 22 22 22 23 23 24 27 29 29
26 25 23 20 17 14 11 8 5 4 3 2 3 4 6 7 7 8 8 6 11 10 12 14 16 18 21 23 25 23 20 21 22 21 22 21 21 23 24 25 27 28 28 29
27 23 20 17 14 12 9 7 5 3 3 3 4 5 6 6 7 7 7 8 11 11 13 16 18 21 23 23 23 20 20 22 22 22 22 21 24 27 26 27 27 27 28 29
23 19 16 13 12 10 8 5 4 3 4 4 4 5 5 5 6 5 6 8 10 13 15 17 20 21 21 22 21 21 21 21 22 23 24 26 27 26 26 27 27 27 28 28
18 15 14 12 10 8 6 5 4 4 4 4 5 5 5 5 5 6 7 10 12 14 17 17 19 20 21 21 20 21 21 22 23 24 26 24 26 27 27 26 26 27 27 26
14 12 11 10 9 8 6 5 4 4 4 5 5 5 5 4 5 7 8 11 14 15 16 17 19 19 20 21 22 22 24 24 24 26 26 28 29 28 26 26 27 27 25 26
12 10 10 10 9 8 7 6 6 6 6 7 6 5 4 4 5 7 10 12 13 15 17 18 19 21 22 23 24 24 25 26 27 28 28 28 27 26 27 27 27 26 25 24
11 10 10 10 10 8 8 7 7 8 8 6 4 3 3 5 8 10 11 13 15 16 18 20 21 22 23 24 24 25 26 27 28 28 27 27 27 27 27 26 25 23 22 21
Wind_Direction
222 90 171 185 197 212 222 234 234 233 228 236 207 170 172 166 173 179 184 186 187 187 188 189 188 187 185 198 209 222 250 297 320 326 330 329 329 328 325 324 323 322 319 316
223 252 227 209 210 214 221 229 235 246 247 263 28 142 169 180 181 186 190 190 192 191 191 192 191 189 193 203 213 230 271 308 324 329 330 329 328 326 324 325 325 320 315 309
172 182 201 248 230 218 224 232 235 236 239 239 184 185 198 193 187 193 194 195 194 195 194 193 191 188 195 202 217 241 284 316 326 328 328 327 326 325 327 324 319 314 311 310
113 164 224 15 4 231 223 235 232 243 243 304 182 187 166 172 184 179 180 182 185 186 184 183 182 181 185 205 221 254 298 317 325 327 326 324 326 327 323 319 315 314 313 312
218 212 288 284 214 195 203 238 238 237 234 178 119 120 108 108 127 132 135 144 157 167 173 174 181 188 198 207 234 274 303 318 326 323 323 325 327 323 322 318 318 318 316 312
171 243 249 61 117 195 181 261 253 217 214 160 160 184 147 140 130 128 134 143 153 164 172 176 178 189 197 218 252 289 307 324 321 320 323 324 324 322 320 319 319 316 312 310
199 256 286 76 130 147 199 32 35 166 166 164 176 79 135 140 131 135 136 144 154 158 158 171 181 187 203 239 275 299 322 321 317 320 322 323 321 322 322 320 317 312 310 312
201 199 258 135 121 225 83 102 125 132 147 137 122 120 123 131 132 132 135 141 146 152 165 177 185 202 228 258 291 315 316 312 317 323 323 322 323 324 321 319 314 313 313 312
208 204 95 145 33 19 157 140 135 133 132 131 128 128 131 132 136 141 147 153 158 168 176 187 199 220 255 288 307 310 310 318 321 322 323 322 320 320 318 314 312 310 312 312
177 156 144 185 111 137 146 140 137 133 130 130 128 131 131 135 140 151 164 171 177 182 187 205 220 245 271 292 297 305 315 319 322 323 322 322 318 313 309 308 308 308 309 313
178 170 139 194 170 152 137 136 131 126 124 128 133 130 135 138 152 176 193 200 199 193 196 220 240 260 271 285 302 314 318 323 322 320 319 318 314 311 306 305 302 305 310 311
228 172 183 171 165 157 145 141 142 141 134 131 137 143 151 160 198 215 219 219 207 208 215 228 247 265 276 296 311 316 318 320 320 318 317 313 310 313 313 308 309 307 306 309
107 148 104 146 151 152 143 143 140 144 147 148 149 157 178 222 232 228 224 218 212 213 224 245 250 256 284 303 310 313 317 318 316 316 315 311 313 313 313 317 314 314 314 314
137 125 116 150 156 151 154 150 153 151 153 157 163 185 222 232 244 223 216 210 208 222 235 237 241 270 292 301 308 314 316 316 316 312 313 314 310 311 312 313 316 319 320 320
153 164 166 152 150 149 159 158 155 154 157 159 173 212 241 219 215 221 230 223 223 225 227 235 257 277 293 302 309 314 316 316 314 316 320 315 313 310 311 313 314 316 319 321
151 144 149 156 158 158 158 155 158 158 163 172 192 223 244 236 229 240 230 217 215 222 234 251 274 286 297 307 314 317 318 318 318 319 317 316 313 311 312 314 315 315 318 320
143 140 158 157 158 156 155 153 161 166 172 195 224 245 255 244 239 234 223 218 221 234 252 268 278 291 305 311 314 319 321 319 317 314 313 312 313 312 312 312 314 315 315 319
188 181 168 165 157 154 156 159 160 165 178 201 223 238 244 239 229 230 229 229 237 250 265 275 287 301 308 312 317 320 320 318 314 313 315 311 310 309 312 311 313 315 315 318
165 151 152 155 156 157 156 156 159 165 180 212 235 241 235 232 232 244 249 245 251 263 271 284 297 304 310 316 320 320 318 315 313 310 308 309 310 309 311 313 312 314 316 316
149 150 151 149 148 152 152 153 156 168 189 215 227 243 256 262 261 257 248 242 241 250 280 292 303 310 316 319 319 319 320 312 307 307 309 310 309 310 311 313 313 311 315 320
147 147 146 146 147 148 151 155 164 173 189 218 245 256 257 257 248 238 234 240 261 275 290 302 310 315 318 317 317 318 314 308 307 309 309 310 310 310 311 312 311 317 318 321
145 145 147 149 152 156 164 171 181 198 226 249 259 256 249 240 232 231 242 245 281 296 305 312 315 315 315 316 319 316 310 311 313 314 313 311 311 315 314 316 317 319 318 319
149 152 155 160 167 171 171 177 197 233 253 255 245 230 218 222 228 238 267 285 296 306 310 312 312 314 317 320 320 315 316 318 317 317 313 313 315 316 315 314 315 316 320 320
155 160 165 168 171 175 185 199 222 235 231 219 214 210 211 228 250 270 285 297 304 307 311 315 317 320 323 323 322 322 321 319 316 314 316 315 314 312 314 316 316 317 318 320
159 162 169 177 183 190 198 207 213 206 201 199 201 208 221 243 272 295 300 305 310 316 321 324 324 325 326 327 326 323 322 321 318 316 314 314 316 316 316 315 315 315 317 319
163 172 176 182 188 192 194 195 196 193 195 198 202 215 246 273 293 304 311 317 323 326 326 327 329 329 329 329 327 326 322 319 318 318 316 316 317 315 314 315 316 316 318 319
175 178 179 180 181 184 188 191 190 188 192 199 218 239 277 303 315 320 324 326 328 329 329 330 331 331 330 328 328 327 323 323 322 320 320 318 318 319 317 317 316 317 316 320
Height
1380 1381 1391 1399 1404 1409 1410 1406 1407 1401 1404 1398 1399 1407 1413 1417 1422 1428 1433 1437 1441 1445 1450 1453 1456 1458 1460 1462 1463 1465 1466 1466 1466 1465 1463 1460 1458 1456 1454 1452 1449 1445 1441 1437
1391 1391 1390 1394 1396 1398 1402 1401 1401 1399 1396 1393 1398 1404 1410 1415 1419 1424 1429 1434 1439 1443 1447 1451 1454 1456 1458 1459 1461 1463 1463 1464 1463 1461 1459 1458 1456 1453 1451 1448 1444 1441 1436 1432
1391 1395 1398 1402 1389 1391 1395 1394 1396 1398 1395 1394 1403 1405 1410 1413 1418 1422 1427 1432 1436 1440 1445 1448 1451 1454 1455 1457 1459 1460 1461 1461 1460 1459 1457 1455 1453 1451 1447 1444 1440 1436 1431 1426
1399 1397 1409 1379 1382 1381 1385 1385 1387 1389 1390 1396 1400 1406 1411 1415 1419 1423 1427 1430 1434 1438 1442 1446 1449 1451 1454 1455 1457 1458 1458 1458 1457 1456 1454 1452 1450 1447 1443 1440 1436 1431 1425 1421
1402 1399 1385 1376 1383 1383 1382 1382 1382 1384 1389 1397 1404 1410 1417 1419 1421 1425 1428 1431 1434 1437 1440 1443 1446 1448 1451 1453 1454 1455 1455 1455 1454 1453 1451 1449 1446 1443 1439 1435 1430 1425 1420 1415
1404 1402 1398 1383 1383 1384 1382 1387 1372 1377 1386 1395 1405 1407 1411 1420 1422 1424 1426 1429 1432 1435 1438 1441 1444 1447 1450 1451 1452 1453 1453 1452 1451 1449 1448 1445 1442 1438 1434 1429 1424 1420 1415 1411
1415 1404 1389 1382 1386 1387 1392 1388 1384 1383 1387 1397 1403 1404 1410 1416 1421 1424 1426 1428 1431 1434 1437 1440 1443 1446 1448 1450 1450 1451 1449 1449 1448 1447 1444 1441 1438 1433 1429 1424 1420 1415 1411 1406
1407 1408 1406 1386 1390 1388 1389 1389 1389 1390 1395 1401 1406 1410 1413 1417 1420 1424 1426 1429 1431 1435 1437 1440 1443 1445 1446 1447 1448 1447 1447 1447 1446 1444 1441 1437 1433 1429 1425 1420 1416 1411 1406 1401
1380 1384 1387 1388 1389 1390 1391 1391 1394 1397 1400 1403 1407 1411 1414 1417 1421 1424 1427 1429 1432 1435 1437 1439 1442 1443 1444 1445 1445 1446 1445 1444 1443 1441 1438 1434 1429 1425 1421 1417 1412 1407 1402 1396
1381 1384 1386 1388 1390 1390 1392 1394 1397 1400 1402 1406 1409 1413 1416 1420 1422 1425 1427 1430 1432 1434 1436 1438 1440 1441 1442 1443 1444 1443 1443 1442 1440 1437 1433 1430 1426 1423 1418 1414 1409 1403 1397 1391
1381 1386 1387 1388 1389 1392 1394 1397 1399 1402 1405 1408 1411 1415 1417 1421 1424 1426 1428 1429 1431 1433 1435 1437 1438 1440 1441 1441 1441 1441 1440 1438 1436 1433 1429 1425 1422 1418 1414 1410 1406 1399 1393 1388
1370 1372 1376 1380 1387 1392 1395 1397 1400 1403 1407 1410 1413 1416 1419 1422 1424 1425 1427 1428 1431 1432 1434 1435 1437 1438 1439 1439 1438 1438 1437 1435 1432 1429 1426 1422 1418 1412 1410 1405 1401 1396 1391 1386
1371 1375 1378 1381 1388 1393 1395 1399 1402 1405 1408 1411 1414 1417 1419 1421 1423 1424 1425 1427 1429 1431 1433 1434 1435 1436 1437 1437 1437 1436 1434 1432 1429 1426 1422 1418 1413 1408 1401 1396 1395 1391 1386 1382
1373 1376 1383 1385 1388 1393 1395 1399 1403 1407 1410 1413 1415 1417 1419 1420 1422 1423 1425 1426 1428 1430 1431 1433 1434 1435 1435 1435 1434 1433 1431 1428 1425 1422 1418 1413 1409 1404 1400 1394 1387 1384 1381 1377
1373 1375 1378 1384 1389 1392 1396 1400 1404 1408 1411 1413 1415 1417 1418 1419 1421 1422 1423 1425 1427 1429 1430 1431 1432 1433 1433 1432 1431 1429 1426 1424 1421 1417 1413 1409 1404 1400 1396 1391 1386 1381 1376 1371
1372 1375 1379 1383 1387 1392 1397 1402 1405 1408 1411 1413 1415 1416 1418 1418 1419 1421 1423 1425 1427 1428 1429 1430 1431 1431 1430 1429 1427 1425 1422 1419 1416 1412 1408 1404 1401 1397 1392 1388 1383 1378 1373 1368
1369 1377 1380 1384 1389 1393 1398 1403 1405 1408 1411 1413 1414 1416 1417 1418 1419 1421 1423 1424 1425 1426 1427 1428 1429 1428 1428 1426 1423 1421 1418 1415 1412 1408 1404 1401 1397 1393 1389 1384 1379 1375 1370 1365
1370 1373 1379 1382 1388 1394 1399 1402 1405 1408 1411 1412 1414 1415 1417 1418 1419 1420 1421 1423 1424 1425 1426 1427 1427 1426 1424 1422 1419 1416 1413 1411 1407 1404 1400 1397 1393 1389 1385 1381 1376 1371 1366 1361
1371 1375 1381 1386 1391 1395 1399 1403 1406 1408 1410 1412 1413 1414 1416 1417 1418 1419 1420 1422 1423 1424 1424 1424 1424 1422 1420 1418 1415 1412 1409 1406 1403 1400 1397 1393 1389 1386 1381 1377 1372 1367 1363 1357
1373 1378 1383 1388 1393 1397 1400 1404 1407 1409 1410 1412 1413 1414 1415 1416 1417 1418 1419 1421 1422 1422 1422 1421 1420 1418 1415 1413 1410 1408 1405 1403 1400 1396 1392 1388 1384 1381 1377 1372 1368 1364 1358 1353
1376 1381 1386 1390 1395 1399 1402 1405 1407 1409 1410 1411 1412 1413 1414 1415 1416 1417 1419 1420 1419 1419 1418 1417 1416 1414 1412 1409 1406 1403 1401 1398 1395 1391 1387 1383 1380 1376 1372 1368 1364 1359 1354 1349
1379 1384 1389 1393 1397 1400 1403 1405 1407 1408 1409 1410 1411 1411 1412 1414 1415 1416 1417 1418 1416 1416 1415 1414 1413 1411 1408 1405 1402 1399 1397 1393 1390 1386 1383 1379 1375 1371 1367 1363 1359 1355 1350 1345
1382 1387 1391 1395 1398 1401 1403 1404 1406 1407 1408 1409 1410 1411 1412 1413 1414 1415 1416 1415 1415 1414 1413 1411 1409 1406 1404 1401 1398 1395 1392 1388 1385 1381 1378 1374 1370 1366 1362 1358 1354 1350 1345 1341
1385 1389 1392 1395 1398 1400 1402 1404 1405 1406 1407 1407 1408 1410 1411 1412 1413 1414 1414 1413 1413 1411 1410 1408 1405 1402 1399 1396 1393 1391 1387 1384 1381 1377 1373 1369 1365 1361 1357 1353 1349 1345 1341 1337
1386 1389 1392 1395 1397 1399 1401 1403 1404 1405 1406 1407 1408 1409 1410 1411 1412 1412 1412 1411 1410 1408 1406 1404 1401 1399 1396 1392 1389 1386 1383 1379 1376 1372 1368 1364 1359 1356 1352 1348 1344 1340 1336 1333
1387 1390 1392 1394 1397 1399 1401 1402 1404 1405 1406 1407 1408 1409 1409 1410 1410 1410 1410 1408 1407 1405 1403 1400 1398 1395 1392 1388 1385 1381 1378 1374 1370 1367 1362 1358 1354 1350 1347 1343 1339 1335 1332 1328
1388 1390 1393 1395 1397 1399 1400 1402 1403 1404 1405 1406 1407 1408 1409 1409 1408 1408 1407 1405 1404 1402 1399 1396 1394 1391 1388 1384 1380 1377 1373 1370 1366 1361 1357 1353 1349 1345 1341 1337 1334 1331 1328 1325